Location: Croydon
(51.3762°N, 0.0982°W)
Time: 09:01:16
(UTC+00:00)

Altair - Pass Details

Date: 14 November 2019
Orbit: 1502 x 1682 km, 47.2° (Epoch: 06 December)

Event Time Altitude Azimuth Distance (km) Brightness Sun altitude
Rises 12:18:13 0° 283° (WNW) 4,719 10.0 20.0°
Reaches altitude 10° 12:23:40 10° 258° (WSW) 3,770 9.9 19.9°
Maximum altitude 12:27:16 13° 235° (SW) 3,580 10.3 19.8°
Drops below altitude 10° 12:30:54 10° 212° (SSW) 3,819 11.1 19.7°
Sets 12:36:34 0° 187° (S) 4,842 11.7 19.5°
